Location: Detroit
(42.3310°N, 83.0460°W)
Time: 17:00:55
(UTC-05:00)

A-11 Canister half - Pass Details

Date: 07 October 2023
Orbit: 1525 x 1684 km, 47.3° (Epoch: 02 December)

Event Time Altitude Azimuth Distance (km) Brightness Sun altitude
Rises 19:48:01 0° 295° (WNW) 4,721 12.9 -9.0°
Reaches altitude 10° 19:51:25 10° 286° (WNW) 3,754 12.5 -9.6°
Maximum altitude 19:59:33 33° 227° (SW) 2,425 10.5 -11.2°
Drops below altitude 10° 20:07:55 10° 168° (SSE) 3,850 10.9 -12.7°
Sets 20:11:29 0° 159° (SSE) 4,856 11.4 -13.4°
